Regional Weather Roundup
Issued by NWS

Home | Current Version | Previous Version | Text Only | Print | Product List | Glossary Off
Versions: 1 2 3 4 5 6 7 8 9 10 11 12 13 14 15 16 17 18 19 20 21 22 23 24 25 26 27 28 29 30 31 32 33 34 35 36 37 38 39 40 41 42 43 44 45 46 47 48 49 50

000
ASUS44 KOUN 180510
RWROK

WEATHER ROUNDUP FOR OKLAHOMA
NATIONAL WEATHER SERVICE NORMAN OK
1200 AM CDT FRI AUG 18 2017

NOTE: "FAIR" INDICATES FEW OR NO CLOUDS BELOW 12,000 FEET WITH NO
      SIGNIFICANT WEATHER AND/OR OBSTRUCTIONS TO VISIBILITY.

OKZ001>007-009>012-014-015-017-180600-
NORTHWEST OKLAHOMA AND THE PANHANDLE

CITY           SKY/WX    TMP DP  RH WIND       PRES   REMARKS
GAGE           CLOUDY    76  63  64 E6        30.09R
ENID/WOODRING  CLOUDY    72  64  78 SE3       29.99F
$$

OKZ016-021>023-033>039-044-045-180600-
SOUTHWEST OKLAHOMA

CITY           SKY/WX    TMP DP  RH WIND       PRES   REMARKS
LAWTON/REGL      N/A    N/A N/A N/A NE3       30.00F
LAWTON/FT SILL PTCLDY    78  74  86 S6        29.99F
FREDERICK      PTCLDY    75  71  87 S7        29.98F
CLINTON        CLEAR     76  69  79 S7        30.06R
HOBART         CLEAR     77  71  82 S7        30.03F
ALTUS AFB      CLOUDY    74  70  88 SE3       30.01F
$$

OKZ018>020-024>031-180600-
CENTRAL OKLAHOMA

CITY           SKY/WX    TMP DP  RH WIND       PRES   REMARKS
OKLAHOMA CITY  PTCLDY    74  70  87 S3        30.01F
OKC/WILEY POST CLEAR     75  70  84 S5        30.01F
OKC/TINKER AFB CLEAR     76  70  81 S6        30.01F
STILLWATER     CLEAR     69  67  93 CALM      30.01S
GUTHRIE        PTCLDY    74  68  81 SE3       30.01S
$$

OKZ008-013-054>072-180600-
NORTHEAST OKLAHOMA

CITY           SKY/WX    TMP DP  RH WIND       PRES   REMARKS
TULSA          CLEAR     77  70  79 CALM      29.98S
TULSA/JONES    CLEAR     73  71  93 CALM      29.99F
PONCA CITY     CLOUDY    69  64  84 CALM      30.00F
BARTLESVILLE   CLEAR     66  64  93 CALM      30.01S
MUSKOGEE       CLEAR     73  72  96 S3        30.00F
$$

OKZ032-040>043-046>053-073>077-180600-
SOUTH CENTRAL/SOUTHEAST OKLAHOMA

CITY           SKY/WX    TMP DP  RH WIND       PRES   REMARKS
ARDMORE/DWNTWN CLOUDY    79  73  83 CALM      30.00F
MCALESTER      PTCLDY    76  74  93 S3        30.01F
$$





USA.gov is the U.S. government's official web portal to all federal, state and local government web resources and services.